| time (UTC) | temp F | wind direction | speed MPH | gust MPH | rain 1hr in | rain 24hr in | rain mn in | humidity % | barometer mb |
| 20260906003020 | 69 | 0.0 | 0.0 | 0.00 | 0.00 | 0.00 | 89 | 1016.7 | |
| 20260906002028 | 70 | 0.0 | 0.0 | 0.00 | 0.00 | 0.00 | 88 | 1016.8 | |
| 20260906001049 | 70 | 0.0 | 0.0 | 0.00 | 0.00 | 0.00 | 87 | 1017.0 | |
| 20260906000019 | 71 | 0.0 | 0.0 | 0.00 | 0.00 | 0.00 | 86 | 1017.2 | |
| 20260905235048 | 71 | 0.0 | 0.0 | 0.00 | 0.00 | 0.00 | 85 | 1017.1 | |
| 20260905234040 | 72 | 0.0 | 1.0 | 0.00 | 0.00 | 0.00 | 84 | 1017.1 | |
| 20260905233039 | 72 | 0.0 | 2.0 | 0.00 | 0.00 | 0.00 | 83 | 1017.1 | |
| 20260905232019 | 72 | 0.0 | 0.0 | 0.00 | 0.00 | 0.00 | 82 | 1017.3 | |
| 20260905231028 | 73 | 0.0 | 1.0 | 0.00 | 0.00 | 0.00 | 81 | 1017.4 | |
| 20260905230028 | 73 | 0.0 | 1.0 | 0.00 | 0.00 | 0.00 | 81 | 1017.4 | |
| 20260905225020 | 73 | 0.0 | 3.0 | 0.00 | 0.00 | 0.00 | 79 | 1017.2 | |
| 20260905224039 | 73 | 0.0 | 2.0 | 0.00 | 0.00 | 0.00 | 80 | 1017.2 | |
| 20260905223020 | 74 | 0.0 | 1.0 | 0.00 | 0.00 | 0.00 | 81 | 1017.1 | |
| 20260905222040 | 74 | 0.0 | 2.0 | 0.00 | 0.00 | 0.00 | 82 | 1017.3 | |
| 20260905221028 | 74 | 0.0 | 0.0 | 0.00 | 0.00 | 0.00 | 81 | 1017.3 | |
| 20260905220019 | 74 | 0.0 | 2.0 | 0.00 | 0.00 | 0.00 | 81 | 1017.3 | |
| 20260905215028 | 75 | 0.0 | 2.0 | 0.00 | 0.00 | 0.00 | 81 | 1017.4 | |
| 20260905214019 | 76 | 0.0 | 3.0 | 0.00 | 0.00 | 0.00 | 79 | 1017.4 | |
| 20260905213020 | 76 | 0.0 | 0.0 | 0.00 | 0.00 | 0.00 | 79 | 1017.3 | |
| 20260905212019 | 76 | 0.0 | 1.0 | 0.00 | 0.00 | 0.00 | 80 | 1017.3 | |
| 20260905211019 | 76 | 0.0 | 0.0 | 0.00 | 0.00 | 0.00 | 80 | 1017.2 | |
| 20260905210028 | 76 | 0.0 | 2.0 | 0.00 | 0.00 | 0.00 | 79 | 1017.2 | |
| 20260905205045 | 77 | 0.0 | 2.0 | 0.00 | 0.00 | 0.00 | 79 | 1017.5 | |
| 20260905204040 | 77 | 0.0 | 1.0 | 0.00 | 0.00 | 0.00 | 78 | 1017.4 | |
| 20260905203036 | 77 | 0.0 | 1.0 | 0.00 | 0.00 | 0.00 | 79 | 1017.5 | |
| 20260905202019 | 76 | 0.0 | 0.0 | 0.00 | 0.00 | 0.00 | 80 | 1017.6 | |
| 20260905201019 | 76 | 0.0 | 0.0 | 0.00 | 0.00 | 0.00 | 81 | 1017.6 | |
| 20260905200028 | 76 | 0.0 | 3.0 | 0.00 | 0.00 | 0.00 | 80 | 1017.5 | |
| 20260905195019 | 77 | 0.0 | 0.0 | 0.00 | 0.00 | 0.00 | 81 | 1017.5 | |
| 20260905194019 | 76 | 0.0 | 4.0 | 0.00 | 0.00 | 0.00 | 79 | 1017.5 | |
| 20260905193019 | 77 | 0.0 | 1.0 | 0.00 | 0.00 | 0.00 | 79 | 1017.6 | |
| 20260905192039 | 77 | 0.0 | 0.0 | 0.00 | 0.00 | 0.00 | 79 | 1017.4 | |
| 20260905191019 | 77 | 0.0 | 0.0 | 0.00 | 0.00 | 0.00 | 80 | 1017.4 | |
| 20260905190019 | 77 | 0.0 | 0.0 | 0.00 | 0.00 | 0.00 | 78 | 1017.6 | |
| 20260905185037 | 76 | 0.0 | 2.0 | 0.00 | 0.00 | 0.00 | 80 | 1017.5 | |
| 20260905184029 | 76 | 0.0 | 1.0 | 0.00 | 0.00 | 0.00 | 79 | 1017.5 | |
| 20260905183019 | 78 | 0.0 | 2.0 | 0.00 | 0.00 | 0.00 | 77 | 1017.5 | |
| 20260905182108 | 77 | 0.0 | 1.0 | 0.00 | 0.00 | 0.00 | 78 | 1017.4 | |
| 20260905181019 | 77 | 0.0 | 0.0 | 0.00 | 0.00 | 0.00 | 77 | 1017.6 | |
| 20260905180019 | 77 | 0.0 | 1.0 | 0.00 | 0.00 | 0.00 | 78 | 1017.7 | |
| 20260905175019 | 78 | 0.0 | 1.0 | 0.00 | 0.00 | 0.00 | 78 | 1017.8 | |
| 20260905174019 | 78 | 0.0 | 1.0 | 0.00 | 0.00 | 0.00 | 76 | 1017.9 | |
| 20260905173028 | 77 | 0.0 | 0.0 | 0.00 | 0.00 | 0.00 | 80 | 1017.9 | |
| 20260905172045 | 75 | 0.0 | 1.0 | 0.00 | 0.00 | 0.00 | 81 | 1018.1 | |
| 20260905171019 | 74 | 0.0 | 1.0 | 0.00 | 0.00 | 0.00 | 83 | 1018.1 | |
| 20260905170037 | 74 | 0.0 | 1.0 | 0.00 | 0.00 | 0.00 | 84 | 1018.1 | |
| 20260905165036 | 73 | 0.0 | 1.0 | 0.00 | 0.00 | 0.00 | 84 | 1018.0 | |
| 20260905164019 | 73 | 0.0 | 0.0 | 0.00 | 0.00 | 0.00 | 86 | 1018.0 | |
| 20260905163019 | 72 | 0.0 | 0.0 | 0.00 | 0.00 | 0.00 | 87 | 1018.0 | |
| 20260905162048 | 72 | 0.0 | 0.0 | 0.00 | 0.00 | 0.00 | 87 | 1017.9 | |
| 20260905161019 | 72 | 0.0 | 1.0 | 0.00 | 0.00 | 0.00 | 87 | 1018.0 | |
| 20260905160019 | 72 | 0.0 | 5.0 | 0.00 | 0.00 | 0.00 | 87 | 1017.9 | |
| 20260905155019 | 72 | 0.0 | 1.0 | 0.00 | 0.00 | 0.00 | 87 | 1017.8 | |
| 20260905154019 | 72 | 0.0 | 1.0 | 0.00 | 0.00 | 0.00 | 87 | 1017.9 | |
| 20260905153019 | 71 | 90 | 1.0 | 5.0 | 0.00 | 0.00 | 0.00 | 88 | 1017.7 |
| 20260905152019 | 71 | 0.0 | 4.0 | 0.00 | 0.00 | 0.00 | 89 | 1017.7 | |
| 20260905151028 | 71 | 0.0 | 1.0 | 0.00 | 0.00 | 0.00 | 89 | 1017.6 | |
| 20260905150048 | 70 | 0.0 | 2.0 | 0.00 | 0.00 | 0.00 | 89 | 1017.3 | |
| 20260905145028 | 70 | 0.0 | 3.0 | 0.00 | 0.00 | 0.00 | 89 | 1017.2 | |
| 20260905144056 | 70 | 0.0 | 0.0 | 0.00 | 0.00 | 0.00 | 89 | 1017.1 | |
| 20260905143048 | 69 | 0.0 | 0.0 | 0.00 | 0.00 | 0.00 | 89 | 1017.1 | |
| 20260905142039 | 69 | 0.0 | 0.0 | 0.00 | 0.00 | 0.00 | 88 | 1017.1 | |
| 20260905141019 | 68 | 0.0 | 1.0 | 0.00 | 0.00 | 0.00 | 88 | 1017.0 | |
| 20260905140047 | 68 | 0.0 | 1.0 | 0.00 | 0.00 | 0.00 | 87 | 1016.8 | |
| 20260905135019 | 68 | 0.0 | 4.0 | 0.00 | 0.00 | 0.00 | 86 | 1016.6 | |
| 20260905134039 | 67 | 0.0 | 1.0 | 0.00 | 0.00 | 0.00 | 84 | 1016.7 | |
| 20260905133028 | 67 | 0.0 | 0.0 | 0.00 | 0.00 | 0.00 | 83 | 1016.7 | |
| 20260905132019 | 67 | 0.0 | 2.0 | 0.00 | 0.00 | 0.00 | 83 | 1016.6 | |
| 20260905131039 | 67 | 0.0 | 0.0 | 0.00 | 0.00 | 0.00 | 83 | 1016.6 | |
| 20260905130019 | 67 | 0.0 | 1.0 | 0.00 | 0.00 | 0.00 | 83 | 1016.7 | |
| 20260905125027 | 67 | 0.0 | 1.0 | 0.00 | 0.00 | 0.00 | 83 | 1016.9 | |
| 20260905124027 | 67 | 0.0 | 0.0 | 0.00 | 0.00 | 0.00 | 83 | 1016.8 | |
| 20260905123019 | 67 | 0.0 | 0.0 | 0.00 | 0.00 | 0.00 | 83 | 1016.9 | |
| 20260905122027 | 68 | 0.0 | 0.0 | 0.00 | 0.00 | 0.00 | 84 | 1017.0 | |
| 20260905121039 | 68 | 0.0 | 0.0 | 0.00 | 0.00 | 0.00 | 84 | 1016.3 | |
| 20260905120027 | 68 | 0.0 | 1.0 | 0.00 | 0.00 | 0.00 | 84 | 1016.1 | |
| 20260905115019 | 68 | 0.0 | 0.0 | 0.00 | 0.00 | 0.00 | 84 | 1015.8 | |
| 20260905113038 | 68 | 0.0 | 0.0 | 0.00 | 0.00 | 0.00 | 84 | 1015.6 | |
| 20260905112027 | 68 | 0.0 | 0.0 | 0.00 | 0.00 | 0.00 | 84 | 1015.5 | |
| 20260905111038 | 68 | 0.0 | 0.0 | 0.00 | 0.00 | 0.00 | 84 | 1015.3 | |
| 20260905110019 | 68 | 0.0 | 0.0 | 0.00 | 0.00 | 0.00 | 84 | 1015.0 | |
| 20260905105019 | 68 | 0.0 | 1.0 | 0.00 | 0.00 | 0.00 | 84 | 1015.0 | |
| 20260905104027 | 68 | 0.0 | 0.0 | 0.00 | 0.00 | 0.00 | 84 | 1015.1 | |
| 20260905103018 | 68 | 0.0 | 0.0 | 0.00 | 0.00 | 0.00 | 84 | 1015.1 | |
| 20260905102018 | 68 | 0.0 | 1.0 | 0.00 | 0.00 | 0.00 | 84 | 1015.2 | |
| 20260905101027 | 69 | 0.0 | 1.0 | 0.00 | 0.01 | 0.00 | 84 | 1015.2 | |
| 20260905100020 | 69 | 0.0 | 0.0 | 0.00 | 0.02 | 0.00 | 84 | 1015.3 | |
| 20260905095047 | 69 | 0.0 | 0.0 | 0.00 | 0.02 | 0.00 | 84 | 1015.4 | |
| 20260905094027 | 69 | 0.0 | 0.0 | 0.00 | 0.03 | 0.00 | 84 | 1015.4 | |
| 20260905093039 | 69 | 0.0 | 1.0 | 0.00 | 0.03 | 0.00 | 84 | 1015.4 | |
| 20260905092018 | 69 | 0.0 | 0.0 | 0.00 | 0.03 | 0.00 | 84 | 1015.3 | |
| 20260905091027 | 69 | 0.0 | 0.0 | 0.00 | 0.03 | 0.00 | 85 | 1015.3 | |
| 20260905090039 | 69 | 0.0 | 0.0 | 0.00 | 0.03 | 0.00 | 84 | 1015.3 | |
| 20260905085026 | 69 | 0.0 | 0.0 | 0.00 | 0.06 | 0.00 | 85 | 1015.2 | |
| 20260905084019 | 70 | 0.0 | 0.0 | 0.00 | 0.07 | 0.00 | 85 | 1015.0 | |
| 20260905083026 | 70 | 0.0 | 1.0 | 0.00 | 0.08 | 0.00 | 85 | 1015.0 | |
| 20260905082106 | 70 | 0.0 | 0.0 | 0.00 | 0.12 | 0.00 | 85 | 1015.1 | |
| 20260905081018 | 70 | 0.0 | 0.0 | 0.00 | 0.12 | 0.00 | 86 | 1015.1 | |
| 20260905080018 | 70 | 0.0 | 0.0 | 0.00 | 0.12 | 0.00 | 86 | 1015.0 | |
| 20260905075059 | 71 | 0.0 | 0.0 | 0.00 | 0.12 | 0.00 | 86 | 1015.0 | |
| 20260905074124 | 71 | 0.0 | 0.0 | 0.00 | 0.12 | 0.00 | 87 | 1014.8 | |
| 20260905073018 | 71 | 0.0 | 1.0 | 0.00 | 0.12 | 0.00 | 87 | 1014.9 | |
| 20260905072027 | 71 | 0.0 | 1.0 | 0.00 | 0.12 | 0.00 | 86 | 1015.0 | |
| 20260905071036 | 71 | 0.0 | 0.0 | 0.00 | 0.12 | 0.00 | 86 | 1015.0 | |
| 20260905070019 | 71 | 0.0 | 1.0 | 0.00 | 0.12 | 0.00 | 87 | 1015.0 | |
| 20260905065020 | 71 | 0.0 | 0.0 | 0.00 | 0.12 | 0.00 | 87 | 1015.1 | |
| 20260905064018 | 71 | 0.0 | 1.0 | 0.00 | 0.12 | 0.00 | 87 | 1015.1 | |
| 20260905063018 | 71 | 0.0 | 0.0 | 0.00 | 0.12 | 0.00 | 87 | 1015.0 | |
| 20260905062048 | 71 | 0.0 | 1.0 | 0.00 | 0.12 | 0.00 | 87 | 1014.9 | |
| 20260905061216 | 71 | 0.0 | 0.0 | 0.00 | 0.12 | 0.00 | 87 | 1015.0 | |
| 20260905060026 | 71 | 0.0 | 1.0 | 0.00 | 0.12 | 0.00 | 87 | 1015.0 | |
| 20260905055020 | 71 | 0.0 | 1.0 | 0.00 | 0.12 | 0.00 | 88 | 1015.0 | |
| 20260905054018 | 71 | 0.0 | 1.0 | 0.00 | 0.12 | 0.00 | 88 | 1015.0 | |
| 20260905053035 | 71 | 0.0 | 1.0 | 0.00 | 0.12 | 0.00 | 88 | 1014.9 | |
| 20260905052029 | 71 | 0.0 | 0.0 | 0.00 | 0.12 | 0.00 | 88 | 1014.8 | |
| 20260905051019 | 71 | 68 | 1.0 | 4.0 | 0.00 | 0.12 | 0.00 | 88 | 1014.8 |
| 20260905050028 | 72 | 0.0 | 2.0 | 0.00 | 0.12 | 0.12 | 88 | 1014.7 | |
| 20260905045028 | 72 | 0.0 | 2.0 | 0.00 | 0.12 | 0.12 | 88 | 1014.6 | |
| 20260905044020 | 72 | 0.0 | 0.0 | 0.00 | 0.12 | 0.12 | 88 | 1014.5 | |
| 20260905043020 | 72 | 0.0 | 0.0 | 0.00 | 0.12 | 0.12 | 88 | 1014.5 | |
| 20260905042020 | 72 | 68 | 1.0 | 5.0 | 0.00 | 0.12 | 0.12 | 88 | 1014.4 |
| 20260905041020 | 72 | 0.0 | 1.0 | 0.00 | 0.12 | 0.12 | 87 | 1014.3 | |
| 20260905040021 | 73 | 0.0 | 2.0 | 0.00 | 0.12 | 0.12 | 88 | 1014.3 | |
| 20260905035028 | 73 | 0.0 | 2.0 | 0.00 | 0.12 | 0.12 | 87 | 1014.3 | |
| 20260905034048 | 73 | 0.0 | 0.0 | 0.00 | 0.12 | 0.12 | 87 | 1014.4 | |
| 20260905033020 | 73 | 0.0 | 2.0 | 0.00 | 0.12 | 0.12 | 87 | 1014.3 | |
| 20260905032020 | 73 | 0.0 | 2.0 | 0.00 | 0.12 | 0.12 | 87 | 1014.1 | |
| 20260905031020 | 73 | 0.0 | 2.0 | 0.00 | 0.12 | 0.12 | 88 | 1014.2 | |
| 20260905030020 | 73 | 0.0 | 3.0 | 0.00 | 0.12 | 0.12 | 87 | 1014.1 | |
| 20260905025022 | 73 | 0.0 | 4.0 | 0.00 | 0.12 | 0.12 | 87 | 1014.0 | |
| 20260905024020 | 73 | 0.0 | 2.0 | 0.00 | 0.12 | 0.12 | 85 | 1014.0 | |
| 20260905023020 | 72 | 0.0 | 5.0 | 0.00 | 0.12 | 0.12 | 84 | 1013.8 | |
| 20260905022037 | 71 | 0.0 | 0.0 | 0.00 | 0.12 | 0.12 | 88 | 1013.7 | |
| 20260905021100 | 71 | 0.0 | 0.0 | 0.00 | 0.12 | 0.12 | 89 | 1013.6 | |
| 20260905020020 | 71 | 0.0 | 0.0 | 0.00 | 0.12 | 0.12 | 89 | 1013.6 | |
| 20260905015020 | 72 | 0.0 | 0.0 | 0.00 | 0.12 | 0.12 | 89 | 1013.5 | |
| 20260905014037 | 72 | 0.0 | 0.0 | 0.00 | 0.12 | 0.12 | 88 | 1013.5 | |
| 20260905013028 | 73 | 0.0 | 0.0 | 0.00 | 0.12 | 0.12 | 87 | 1013.3 | |
| 20260905012048 | 74 | 0.0 | 0.0 | 0.00 | 0.40 | 0.12 | 86 | 1013.3 | |
| 20260905011029 | 74 | 0.0 | 1.0 | 0.00 | 0.42 | 0.12 | 85 | 1013.2 | |
| 20260905010040 | 75 | 0.0 | 0.0 | 0.00 | 0.42 | 0.12 | 82 | 1012.9 | |
| 20260905005019 | 75 | 0.0 | 0.0 | 0.00 | 0.42 | 0.12 | 81 | 1012.7 | |
| 20260905004028 | 76 | 0.0 | 0.0 | 0.00 | 0.42 | 0.12 | 77 | 1012.6 |